Regional Weather Roundup
Issued by NWS Columbia, SC

Home | Current Version | Previous Version | Text Only | Print | Product List | Glossary On
Versions: 1 2 3 4 5 6 7 8 9 10 11 12 13 14 15 16 17 18 19 20 21 22 23 24 25 26 27
000
ASUS42 KCAE 252110
RWRCAE
REGIONAL WEATHER ROUNDUP
NATIONAL WEATHER SERVICE COLUMBIA SC
500 PM EDT MON SEP 25 2017

NOTE: "FAIR" INDICATES FEW OR NO CLOUDS BELOW 12,000 FEET WITH NO
SIGNIFICANT WEATHER AND/OR OBSTRUCTIONS TO VISIBILITY.

NOT ALL STATIONS ARE QUALITY CONTROLLED BY THE NATIONAL
WEATHER SERVICE. USE DATA WITH CAUTION...ESPECIALLY
DEWPOINT OBSERVATIONS.

SCZ001>056-GAZ040-063>065-077-252200-
...UPSTATE SOUTH CAROLINA...

CITY           SKY/WX    TMP DP  RH WIND       PRES   REMARKS
ANDERSON       SUNNY     86  63  45 NE8G16    29.95F
LIBERTY        CLEAR     86  63  46 NE6       29.96F
SPARTANBURG    SUNNY     82  59  44 E6        29.95S
CLEMSON        SUNNY     86  61  42 E6        29.96F
GREENVILLE     SUNNY     87  62  43 N12       29.97F
GREENWOOD      SUNNY     86  63  45 N10       29.94F
GREER          MOSUNNY   86  61  42 N13G21    29.96F
ROCK HILL        N/A    N/A N/A N/A MISG      29.94F
CHESTER        MOCLDY    81  61  50 N9        29.94S
LAURENS        CLEAR     86  63  45 N12       29.94S


...CENTRAL SOUTH CAROLINA...

CITY           SKY/WX    TMP DP  RH WIND       PRES   REMARKS
COLUMBIA APT   MOSUNNY   88  62  41 N9        29.88F
COLUMBIA OWENS SUNNY     88  62  41 VRB5      29.89F
MCENTIRE ANGB  PTSUNNY   86  64  46 N7        29.88F
ORANGEBURG     SUNNY     86  64  47 N7        29.88F
SUMTER SHAW    PTSUNNY   86  64  48 NE14      29.87S
NEWBERRY       CLEAR     86  64  48 NE10G16   29.95S
AIKEN          FAIR      84  63  48 NE10      29.94S
BARNWELL       FAIR      88  66  48 NE12      29.88F
MANNING        FAIR      82  55  39 MISG      29.88F
CAMDEN         FAIR      88  64  45 NE10G17   29.89S
LANCASTER      PTCLDY    84  61  45 N8        29.92F
WINNSBORO      CLOUDY    84  64  51 N8        29.92S


...EASTERN AND COASTAL SOUTH CAROLINA...

CITY           SKY/WX    TMP DP  RH WIND       PRES   REMARKS
MYRTLE BEACH   MOSUNNY   79  70  74 N15       29.87F
N MYRTLE BCH   MOSUNNY   80  70  71 N10G20    29.85F
CONWAY         CLOUDY    77  68  73 N9        29.88F
MARION         FAIR      77  68  73 N8        29.89F
HARTSVILLE     MOCLDY    82  64  54 NE10      29.90S
FLORENCE       CLOUDY    80  68  66 NE13      29.89F
DARLINGTON     MOSUNNY   83  70  64 NE10      29.90F
CHARLESTON APT PTSUNNY   81  69  67 N9        29.86S
MOUNT PLEASANT MOCLDY    82  72  69 N3        29.86S
WALTERBORO     CLOUDY    81  68  65 NE5       29.88F
BEAUFORT       MOSUNNY   84  69  60 N7        29.87F


...EASTERN GEORGIA...

CITY           SKY/WX    TMP DP  RH WIND       PRES   REMARKS
AUGUSTA BUSH F SUNNY     91  63  39 NE9       29.90S
AUGUSTA DANIEL SUNNY     89  62  40 N12       29.91F
THOMSON        SUNNY     87  62  44 E9        29.96S
WASHINGTON     FAIR     N/A N/A N/A NE5       29.92F
CLAXTON        FAIR      88  65  47 N6        29.87F
SYLVANIA       CLEAR     88  69  53 NE7       29.88F
STATESBORO     SUNNY     87  58  37 N5        29.88S
SAVANNAH       MOSUNNY   86  66  51 N9        29.86F


...SOUTHERN NORTH CAROLINA...

CITY           SKY/WX    TMP DP  RH WIND       PRES   REMARKS
CHARLOTTE      PTSUNNY   84  63  49 N13       29.95F
MONROE         MOSUNNY   83  63  50 NE12      29.93F
RUTHERFORDTON  MOSUNNY   84  61  45 N9        29.99S
ASHEVILLE      SUNNY     82  57  42 VRB3      30.03F

$$




USA.gov is the U.S. government's official web portal to all federal, state and local government web resources and services.